When you browse on this site, cookies collect data to enhance your experience and personalize the content and advertising you see.
Visit our Privacy Policy to learn more. By continuing to use the site, you agree to this use of cookies and data.
  • în România
  • Lista ţărilor
  • Pe 7 zile
  • Temperatura apei
  • Hartă satelitară
  • Meteo pe hartă
  • Widget-uri
  • user-avatar
    Intrare

    Meteo pe oră la Makocice

    Astăzi, 24 Februarie, Duminică

    Timp Temperatura Precipitaţii Vânt Presiune Umiditate
    00:00 -2°C° 0 mm 1 m/s 759 mmHg 43%
    01:00 -2°C° 0 mm 1 m/s 759 mmHg 43%
    02:00 -2°C° 0 mm 1 m/s 758 mmHg 42%
    03:00 -2°C° 0 mm 1 m/s 758 mmHg 41%
    04:00 -1°C° 0 mm 1 m/s 758 mmHg 40%
    05:00 -1°C° 0 mm 1 m/s 757 mmHg 39%
    06:00 -3°C° 0 mm 2 m/s 757 mmHg 37%
    07:00 -2°C° 0 mm 2 m/s 757 mmHg 36%
    08:00 -2°C° 0 mm 2 m/s 757 mmHg 33%
    09:00 -1°C° 0 mm 3 m/s 757 mmHg 30%
    10:00 0°C° 0 mm 3 m/s 757 mmHg 28%
    11:00 0°C° 0 mm 3 m/s 756 mmHg 36%
    12:00 0°C° 0 mm 3 m/s 756 mmHg 45%
    13:00 0°C° 0 mm 3 m/s 756 mmHg 53%
    14:00 0°C° 0 mm 3 m/s 756 mmHg 54%
    15:00 +1°C° 0 mm 3 m/s 756 mmHg 55%
    16:00 0°C° 0 mm 4 m/s 755 mmHg 56%
    17:00 0°C° 0 mm 3 m/s 755 mmHg 56%
    18:00 -1°C° 0 mm 3 m/s 755 mmHg 56%
    19:00 -1°C° 0 mm 3 m/s 755 mmHg 56%
    20:00 -1°C° 0 mm 3 m/s 755 mmHg 55%
    21:00 -1°C° 0 mm 3 m/s 755 mmHg 53%
    22:00 -1°C° 0 mm 3 m/s 755 mmHg 52%
    23:00 -1°C° 0 mm 3 m/s 755 mmHg 52%

    Mâine, 25 Februarie, Luni

    Timp Temperatura Precipitaţii Vânt Presiune Umiditate
    00:00 -1°C° 0 mm 3 m/s 755 mmHg 51%
    01:00 -2°C° 0 mm 4 m/s 755 mmHg 51%
    02:00 -2°C° 0 mm 4 m/s 755 mmHg 52%
    03:00 -2°C° 0 mm 4 m/s 755 mmHg 53%
    04:00 -2°C° 0 mm 4 m/s 754 mmHg 54%
    05:00 -2°C° 0 mm 4 m/s 754 mmHg 55%
    06:00 -2°C° 0 mm 4 m/s 754 mmHg 57%
    07:00 -2°C° 0 mm 4 m/s 754 mmHg 59%
    08:00 -1°C° 0 mm 5 m/s 754 mmHg 57%
    09:00 +1°C° 0 mm 5 m/s 754 mmHg 55%
    10:00 +2°C° 0 mm 5 m/s 754 mmHg 53%
    11:00 +3°C° 0 mm 5 m/s 754 mmHg 55%
    12:00 +5°C° 0 mm 5 m/s 754 mmHg 57%
    13:00 +6°C° 0 mm 5 m/s 754 mmHg 59%
    14:00 +5°C° 0 mm 5 m/s 754 mmHg 63%
    15:00 +5°C° 0 mm 4 m/s 753 mmHg 66%
    16:00 +5°C° 0 mm 4 m/s 753 mmHg 70%
    17:00 +4°C° 0 mm 4 m/s 753 mmHg 75%
    18:00 +1°C° 0 mm 4 m/s 753 mmHg 81%
    19:00 0°C° 0 mm 4 m/s 753 mmHg 86%
    20:00 0°C° 0 mm 4 m/s 753 mmHg 88%
    21:00 0°C° 0 mm 4 m/s 753 mmHg 90%
    22:00 -1°C° 0 mm 4 m/s 753 mmHg 91%
    23:00 -1°C° 0 mm 4 m/s 753 mmHg 92%

    Poimâine, 26 Februarie, Marţi

    Timp Temperatura Precipitaţii Vânt Presiune Umiditate
    00:00 -1°C° 0 mm 4 m/s 753 mmHg 92%
    01:00 -1°C° 0 mm 4 m/s 753 mmHg 93%
    02:00 -1°C° 0 mm 4 m/s 752 mmHg 93%
    03:00 -1°C° 0 mm 4 m/s 752 mmHg 94%
    04:00 -1°C° 0 mm 4 m/s 751 mmHg 94%
    05:00 -1°C° 0 mm 5 m/s 751 mmHg 94%
    06:00 0°C° 0 mm 5 m/s 751 mmHg 93%
    07:00 0°C° 0 mm 5 m/s 751 mmHg 93%
    08:00 +1°C° 0 mm 5 m/s 751 mmHg 91%
    09:00 +1°C° 0 mm 5 m/s 750 mmHg 90%
    10:00 +2°C° 0 mm 5 m/s 750 mmHg 89%
    11:00 +2°C° 0.1 mm 5 m/s 750 mmHg 86%
    12:00 +3°C° 0.1 mm 6 m/s 749 mmHg 83%
    13:00 +3°C° 0.1 mm 7 m/s 749 mmHg 80%
    14:00 +3°C° 0.2 mm 7 m/s 748 mmHg 80%
    15:00 +3°C° 0.2 mm 7 m/s 748 mmHg 79%
    16:00 +3°C° 0.2 mm 7 m/s 748 mmHg 78%
    17:00 +3°C° 0 mm 6 m/s 749 mmHg 82%
    18:00 +2°C° 0 mm 5 m/s 749 mmHg 85%
    19:00 +1°C° 0 mm 4 m/s 749 mmHg 89%
    20:00 +1°C° 0 mm 4 m/s 749 mmHg 90%
    21:00 0°C° 0 mm 4 m/s 750 mmHg 91%
    22:00 0°C° 0 mm 4 m/s 750 mmHg 92%
    23:00 +1°C° 0 mm 3 m/s 750 mmHg 92%

    27 Februarie, Miercuri

    Timp Temperatura Precipitaţii Vânt Presiune Umiditate
    00:00 0°C° 0 mm 3 m/s 750 mmHg 92%
    01:00 0°C° 0 mm 3 m/s 750 mmHg 92%
    02:00 0°C° 0 mm 3 m/s 750 mmHg 93%
    03:00 -1°C° 0 mm 3 m/s 750 mmHg 93%
    04:00 -1°C° 0 mm 3 m/s 750 mmHg 94%
    05:00 -1°C° 0 mm 2 m/s 750 mmHg 93%
    06:00 -1°C° 0 mm 2 m/s 750 mmHg 93%
    07:00 -1°C° 0 mm 2 m/s 750 mmHg 92%
    08:00 +1°C° 0 mm 3 m/s 750 mmHg 84%
    09:00 +2°C° 0 mm 3 m/s 750 mmHg 76%
    10:00 +4°C° 0 mm 3 m/s 750 mmHg 68%
    11:00 +5°C° 0 mm 3 m/s 749 mmHg 64%
    12:00 +6°C° 0 mm 4 m/s 749 mmHg 60%
    13:00 +7°C° 0 mm 4 m/s 748 mmHg 56%
    14:00 +7°C° 0 mm 4 m/s 748 mmHg 60%
    15:00 +7°C° 0 mm 4 m/s 747 mmHg 65%
    16:00 +7°C° 0 mm 4 m/s 747 mmHg 69%
    17:00 +6°C° 0 mm 4 m/s 747 mmHg 74%
    18:00 +5°C° 0 mm 3 m/s 747 mmHg 79%
    19:00 +4°C° 0 mm 3 m/s 746 mmHg 84%
    20:00 +4°C° 0 mm 3 m/s 746 mmHg 83%
    21:00 +4°C° 0 mm 4 m/s 746 mmHg 82%
    22:00 +4°C° 0 mm 4 m/s 746 mmHg 81%
    23:00 +3°C° 0 mm 4 m/s 745 mmHg 81%

    28 Februarie, Joi

    Timp Temperatura Precipitaţii Vânt Presiune Umiditate
    00:00 +3°C° 0 mm 4 m/s 745 mmHg 81%
    01:00 +3°C° 0 mm 4 m/s 745 mmHg 81%
    02:00 +3°C° 0 mm 4 m/s 744 mmHg 80%
    03:00 +3°C° 0 mm 4 m/s 744 mmHg 80%
    04:00 +3°C° 0 mm 4 m/s 743 mmHg 79%
    05:00 +3°C° 0 mm 4 m/s 743 mmHg 77%
    06:00 +3°C° 0 mm 4 m/s 742 mmHg 74%
    07:00 +3°C° 0 mm 4 m/s 742 mmHg 72%
    08:00 +5°C° 0 mm 5 m/s 742 mmHg 63%
    09:00 +7°C° 0 mm 6 m/s 741 mmHg 55%
    10:00 +10°C° 0 mm 6 m/s 741 mmHg 46%
    11:00 +11°C° 0 mm 7 m/s 740 mmHg 45%
    12:00 +11°C° 0 mm 7 m/s 740 mmHg 43%
    13:00 +12°C° 0 mm 8 m/s 739 mmHg 41%
    14:00 +12°C° 0 mm 8 m/s 739 mmHg 46%
    15:00 +12°C° 0 mm 7 m/s 739 mmHg 50%
    16:00 +11°C° 0 mm 7 m/s 738 mmHg 55%
    17:00 +10°C° 0 mm 6 m/s 739 mmHg 61%
    18:00 +9°C° 0 mm 6 m/s 739 mmHg 68%
    19:00 +8°C° 0 mm 5 m/s 739 mmHg 74%
    20:00 +7°C° 0 mm 5 m/s 740 mmHg 78%
    21:00 +7°C° 0 mm 5 m/s 740 mmHg 81%
    22:00 +6°C° 0 mm 4 m/s 740 mmHg 85%
    23:00 +6°C° 0 mm 4 m/s 740 mmHg 83%

    1 Martie, Vineri

    Timp Temperatura Precipitaţii Vânt Presiune Umiditate
    00:00 +6°C° 0 mm 4 m/s 740 mmHg 81%
    01:00 +6°C° 0 mm 4 m/s 740 mmHg 79%
    02:00 +5°C° 0 mm 4 m/s 741 mmHg 78%
    03:00 +5°C° 0 mm 5 m/s 741 mmHg 76%
    04:00 +5°C° 0 mm 5 m/s 741 mmHg 75%
    05:00 +3°C° 0 mm 5 m/s 741 mmHg 76%
    06:00 +3°C° 0 mm 5 m/s 741 mmHg 77%
    07:00 +3°C° 0 mm 5 m/s 741 mmHg 79%
    08:00 +3°C° 0 mm 5 m/s 741 mmHg 75%
    09:00 +5°C° 0 mm 5 m/s 742 mmHg 72%
    10:00 +5°C° 0 mm 5 m/s 742 mmHg 68%
    11:00 +6°C° 0 mm 5 m/s 742 mmHg 64%
    12:00 +5°C° 0 mm 6 m/s 742 mmHg 60%
    13:00 +7°C° 0 mm 6 m/s 742 mmHg 56%
    14:00 +7°C° 0 mm 5 m/s 742 mmHg 55%
    15:00 +7°C° 0 mm 5 m/s 742 mmHg 54%
    16:00 +7°C° 0 mm 5 m/s 742 mmHg 53%
    17:00 +6°C° 0 mm 4 m/s 742 mmHg 58%
    18:00 +5°C° 0 mm 3 m/s 743 mmHg 62%
    19:00 +4°C° 0 mm 3 m/s 743 mmHg 66%
    20:00 +4°C° 0 mm 2 m/s 743 mmHg 69%
    21:00 +3°C° 0 mm 2 m/s 744 mmHg 72%
    22:00 +3°C° 0 mm 2 m/s 744 mmHg 74%
    23:00 +2°C° 0 mm 2 m/s 744 mmHg 76%
    Arată mai mult